| time (UTC) | temp C | wind direction | speed KPH | gust KPH | rain 1hr cm | rain 24hr cm | rain mn cm | humidity % | barometer mb |
| 20260509234511 | 27 | 186 | 0.0 | 0.0 | 0.00 | 0.03 | 0.03 | 83 | 1008.3 |
| 20260509234503 | 27 | 194 | 0.0 | 3.2 | 0.00 | 0.03 | 0.03 | 83 | 1012.9 |
| 20260509234010 | 27 | 278 | 1.6 | 1.6 | 0.00 | 0.03 | 0.03 | 83 | 1008.4 |
| 20260509234004 | 27 | 206 | 1.6 | 3.2 | 0.00 | 0.03 | 0.03 | 82 | 1013.0 |
| 20260509233507 | 27 | 201 | 0.0 | 1.6 | 0.00 | 0.03 | 0.03 | 83 | 1008.2 |
| 20260509233504 | 27 | 214 | 0.0 | 1.6 | 0.00 | 0.03 | 0.03 | 84 | 1012.8 |
| 20260509233004 | 27 | 30 | 0.0 | 1.6 | 0.00 | 0.03 | 0.03 | 83 | 1008.3 |
| 20260509232500 | 27 | 248 | 0.0 | 0.0 | 0.00 | 0.03 | 0.03 | 83 | 1008.2 |
| 20260509231956 | 27 | 220 | 0.0 | 0.0 | 0.00 | 0.03 | 0.03 | 83 | 1008.0 |
| 20260509231504 | 27 | 230 | 1.6 | 3.2 | 0.00 | 0.03 | 0.03 | 83 | 1012.7 |
| 20260509231453 | 27 | 237 | 0.0 | 0.0 | 0.00 | 0.03 | 0.03 | 83 | 1008.0 |
| 20260509231004 | 27 | 237 | 0.0 | 1.6 | 0.00 | 0.03 | 0.03 | 83 | 1012.6 |
| 20260509230951 | 27 | 236 | 0.0 | 0.0 | 0.00 | 0.03 | 0.03 | 83 | 1008.0 |
| 20260509230503 | 27 | 17 | 1.6 | 1.6 | 0.00 | 0.03 | 0.03 | 82 | 1012.7 |
| 20260509230448 | 27 | 37 | 0.0 | 1.6 | 0.00 | 0.03 | 0.03 | 82 | 1008.1 |
| 20260509230004 | 27 | 209 | 1.6 | 3.2 | 0.00 | 0.03 | 0.03 | 82 | 1012.6 |
| 20260509225944 | 27 | 78 | 0.0 | 1.6 | 0.00 | 0.03 | 0.03 | 82 | 1008.0 |
| 20260509225440 | 27 | 244 | 0.0 | 0.0 | 0.00 | 0.03 | 0.03 | 83 | 1008.0 |
| 20260509224936 | 27 | 342 | 1.6 | 1.6 | 0.00 | 0.03 | 0.03 | 82 | 1007.8 |
| 20260509224504 | 27 | 312 | 1.6 | 8.0 | 0.00 | 0.03 | 0.03 | 82 | 1012.4 |
| 20260509224432 | 27 | 252 | 0.0 | 0.0 | 0.00 | 0.03 | 0.03 | 83 | 1007.7 |
| 20260509224004 | 28 | 337 | 1.6 | 3.2 | 0.00 | 0.03 | 0.03 | 81 | 1012.4 |
| 20260509223929 | 28 | 359 | 3.2 | 3.2 | 0.00 | 0.03 | 0.03 | 81 | 1007.8 |
| 20260509223504 | 27 | 270 | 0.0 | 1.6 | 0.00 | 0.03 | 0.03 | 81 | 1012.3 |
| 20260509223426 | 27 | 11 | 0.0 | 1.6 | 0.00 | 0.03 | 0.03 | 81 | 1007.6 |
| 20260509223004 | 28 | 209 | 0.0 | 0.0 | 0.00 | 0.03 | 0.03 | 83 | 1012.3 |
| 20260509222923 | 28 | 209 | 0.0 | 0.0 | 0.00 | 0.03 | 0.03 | 83 | 1007.7 |
| 20260509222418 | 28 | 328 | 0.0 | 0.0 | 0.00 | 0.03 | 0.03 | 83 | 1007.6 |
| 20260509221914 | 28 | 216 | 0.0 | 0.0 | 0.00 | 0.03 | 0.03 | 82 | 1007.7 |
| 20260509221504 | 28 | 322 | 0.0 | 0.0 | 0.00 | 0.03 | 0.03 | 79 | 1012.1 |
| 20260509221411 | 28 | 3 | 0.0 | 0.0 | 0.00 | 0.03 | 0.03 | 79 | 1007.5 |
| 20260509221004 | 28 | 4 | 0.0 | 0.0 | 0.00 | 0.03 | 0.03 | 78 | 1012.0 |
| 20260509220907 | 28 | 22 | 0.0 | 0.0 | 0.00 | 0.03 | 0.03 | 78 | 1007.3 |
| 20260509220503 | 28 | 20 | 0.0 | 0.0 | 0.00 | 0.03 | 0.03 | 75 | 1012.1 |
| 20260509220402 | 28 | 17 | 0.0 | 0.0 | 0.00 | 0.03 | 0.03 | 75 | 1007.4 |
| 20260509220004 | 28 | 264 | 0.0 | 0.0 | 0.00 | 0.03 | 0.03 | 77 | 1012.0 |
| 20260509215858 | 28 | 272 | 0.0 | 0.0 | 0.00 | 0.03 | 0.03 | 77 | 1007.4 |
| 20260509215354 | 28 | 317 | 0.0 | 0.0 | 0.00 | 0.03 | 0.03 | 79 | 1007.3 |
| 20260509214852 | 28 | 213 | 0.0 | 0.0 | 0.00 | 0.03 | 0.03 | 80 | 1007.3 |
| 20260509214504 | 28 | 352 | 0.0 | 0.0 | 0.00 | 0.03 | 0.03 | 78 | 1012.0 |
| 20260509214349 | 28 | 326 | 0.0 | 0.0 | 0.00 | 0.03 | 0.03 | 78 | 1007.3 |
| 20260509214003 | 28 | 289 | 0.0 | 0.0 | 0.00 | 0.03 | 0.03 | 77 | 1012.2 |
| 20260509213846 | 28 | 256 | 0.0 | 0.0 | 0.00 | 0.03 | 0.03 | 77 | 1007.6 |
| 20260509213504 | 28 | 357 | 0.0 | 0.0 | 0.00 | 0.03 | 0.03 | 76 | 1012.3 |
| 20260509213341 | 28 | 354 | 0.0 | 0.0 | 0.00 | 0.03 | 0.03 | 76 | 1007.7 |
| 20260509213004 | 28 | 304 | 0.0 | 1.6 | 0.00 | 0.03 | 0.03 | 76 | 1012.4 |
| 20260509212839 | 28 | 298 | 0.0 | 0.0 | 0.00 | 0.03 | 0.03 | 76 | 1007.8 |
| 20260509212337 | 28 | 162 | 0.0 | 0.0 | 0.00 | 0.03 | 0.03 | 77 | 1007.8 |
| 20260509211832 | 28 | 95 | 0.0 | 0.0 | 0.00 | 0.03 | 0.03 | 77 | 1007.8 |
| 20260509211328 | 28 | 217 | 0.0 | 0.0 | 0.00 | 0.03 | 0.03 | 77 | 1007.8 |
| 20260509211003 | 28 | 278 | 0.0 | 0.0 | 0.00 | 0.03 | 0.03 | 76 | 1012.6 |
| 20260509210825 | 28 | 272 | 0.0 | 0.0 | 0.00 | 0.03 | 0.03 | 76 | 1007.9 |
| 20260509210503 | 29 | 260 | 0.0 | 0.0 | 0.00 | 0.03 | 0.03 | 75 | 1012.7 |
| 20260509210323 | 29 | 0 | 0.0 | 0.0 | 0.00 | 0.03 | 0.03 | 76 | 1008.0 |
| 20260509210004 | 28 | 218 | 0.0 | 0.0 | 0.00 | 0.03 | 0.03 | 79 | 1012.7 |
| 20260509205822 | 28 | 239 | 0.0 | 0.0 | 0.00 | 0.03 | 0.03 | 78 | 1008.0 |
| 20260509205317 | 28 | 351 | 0.0 | 0.0 | 0.00 | 0.03 | 0.03 | 80 | 1008.2 |
| 20260509204814 | 28 | 290 | 0.0 | 0.0 | 0.00 | 0.03 | 0.03 | 80 | 1008.2 |
| 20260509204503 | 28 | 342 | 0.0 | 0.0 | 0.00 | 0.03 | 0.03 | 80 | 1013.0 |
| 20260509204310 | 28 | 199 | 0.0 | 0.0 | 0.00 | 0.03 | 0.03 | 80 | 1008.2 |
| 20260509204003 | 28 | 310 | 0.0 | 0.0 | 0.00 | 0.03 | 0.03 | 79 | 1013.0 |
| 20260509203806 | 28 | 318 | 0.0 | 0.0 | 0.00 | 0.03 | 0.03 | 79 | 1008.5 |
| 20260509203503 | 28 | 208 | 0.0 | 0.0 | 0.00 | 0.03 | 0.03 | 77 | 1013.1 |
| 20260509203303 | 28 | 209 | 0.0 | 0.0 | 0.00 | 0.03 | 0.03 | 77 | 1008.4 |
| 20260509203003 | 28 | 226 | 0.0 | 0.0 | 0.00 | 0.03 | 0.03 | 79 | 1013.0 |
| 20260509202759 | 28 | 241 | 0.0 | 0.0 | 0.00 | 0.03 | 0.03 | 78 | 1008.5 |
| 20260509202255 | 28 | 17 | 0.0 | 0.0 | 0.00 | 0.03 | 0.03 | 78 | 1008.5 |
| 20260509201750 | 28 | 28 | 0.0 | 0.0 | 0.00 | 0.03 | 0.03 | 79 | 1008.6 |
| 20260509201504 | 28 | 26 | 0.0 | 1.6 | 0.00 | 0.03 | 0.03 | 80 | 1013.1 |
| 20260509201247 | 28 | 61 | 0.0 | 0.0 | 0.00 | 0.03 | 0.03 | 79 | 1008.4 |
| 20260509201004 | 27 | 237 | 0.0 | 0.0 | 0.00 | 0.03 | 0.03 | 81 | 1013.2 |
| 20260509200744 | 27 | 231 | 0.0 | 0.0 | 0.00 | 0.03 | 0.03 | 82 | 1008.6 |
| 20260509200503 | 27 | 225 | 0.0 | 0.0 | 0.00 | 0.03 | 0.03 | 82 | 1013.1 |
| 20260509200243 | 27 | 229 | 0.0 | 0.0 | 0.00 | 0.03 | 0.03 | 83 | 1008.6 |
| 20260509195740 | 27 | 221 | 0.0 | 0.0 | 0.00 | 0.03 | 0.03 | 83 | 1008.6 |
| 20260509195235 | 27 | 248 | 0.0 | 0.0 | 0.00 | 0.03 | 0.03 | 82 | 1008.7 |
| 20260509194731 | 27 | 335 | 0.0 | 0.0 | 0.00 | 0.03 | 0.03 | 82 | 1008.7 |
| 20260509194504 | 27 | 141 | 0.0 | 0.0 | 0.00 | 0.03 | 0.03 | 82 | 1013.5 |
| 20260509194226 | 27 | 333 | 0.0 | 0.0 | 0.00 | 0.03 | 0.03 | 83 | 1008.7 |
| 20260509194003 | 27 | 252 | 0.0 | 0.0 | 0.00 | 0.03 | 0.03 | 85 | 1013.4 |
| 20260509193723 | 27 | 17 | 0.0 | 0.0 | 0.00 | 0.03 | 0.03 | 85 | 1008.8 |
| 20260509193218 | 27 | 260 | 0.0 | 0.0 | 0.00 | 0.03 | 0.03 | 86 | 1009.0 |
| 20260509192714 | 26 | 342 | 0.0 | 0.0 | 0.00 | 0.03 | 0.03 | 87 | 1009.1 |
| 20260509192209 | 26 | 359 | 0.0 | 0.0 | 0.00 | 0.03 | 0.03 | 86 | 1008.9 |
| 20260509191705 | 26 | 266 | 0.0 | 0.0 | 0.00 | 0.03 | 0.03 | 86 | 1009.1 |
| 20260509191504 | 26 | 237 | 0.0 | 0.0 | 0.00 | 0.03 | 0.03 | 85 | 1013.8 |
| 20260509191201 | 26 | 5 | 0.0 | 0.0 | 0.00 | 0.03 | 0.03 | 86 | 1009.1 |
| 20260509191004 | 26 | 332 | 0.0 | 0.0 | 0.00 | 0.03 | 0.03 | 85 | 1013.7 |
| 20260509190658 | 26 | 22 | 0.0 | 0.0 | 0.00 | 0.03 | 0.03 | 86 | 1009.1 |
| 20260509190504 | 27 | 326 | 0.0 | 1.6 | 0.00 | 0.03 | 0.03 | 83 | 1013.9 |
| 20260509190155 | 26 | 331 | 0.0 | 0.0 | 0.00 | 0.03 | 0.03 | 85 | 1009.1 |
| 20260509190004 | 26 | 222 | 0.0 | 0.0 | 0.00 | 0.03 | 0.03 | 85 | 1014.0 |
| 20260509185653 | 26 | 225 | 0.0 | 0.0 | 0.00 | 0.03 | 0.03 | 85 | 1009.2 |
| 20260509185148 | 26 | 241 | 0.0 | 0.0 | 0.00 | 0.03 | 0.03 | 88 | 1009.3 |
| 20260509184646 | 26 | 210 | 0.0 | 0.0 | 0.00 | 0.03 | 0.03 | 89 | 1009.5 |
| 20260509184504 | 26 | 246 | 0.0 | 0.0 | 0.00 | 0.03 | 0.03 | 89 | 1014.1 |
| 20260509184143 | 26 | 208 | 0.0 | 0.0 | 0.00 | 0.03 | 0.03 | 91 | 1009.6 |
| 20260509184004 | 25 | 214 | 0.0 | 0.0 | 0.00 | 0.03 | 0.03 | 91 | 1014.2 |
| 20260509183639 | 25 | 242 | 0.0 | 0.0 | 0.00 | 0.03 | 0.03 | 90 | 1009.4 |
| 20260509183503 | 25 | 235 | 0.0 | 0.0 | 0.00 | 0.03 | 0.03 | 91 | 1014.1 |
| 20260509183134 | 25 | 246 | 0.0 | 0.0 | 0.00 | 0.03 | 0.03 | 93 | 1009.4 |
| 20260509183004 | 25 | 224 | 0.0 | 1.6 | 0.00 | 0.03 | 0.03 | 93 | 1014.1 |
| 20260509182631 | 25 | 240 | 0.0 | 0.0 | 0.00 | 0.03 | 0.03 | 93 | 1009.4 |
| 20260509182128 | 24 | 354 | 0.0 | 0.0 | 0.00 | 0.03 | 0.03 | 95 | 1009.6 |
| 20260509181626 | 23 | 236 | 0.0 | 0.0 | 0.00 | 0.03 | 0.03 | 98 | 1009.8 |
| 20260509181504 | 23 | 233 | 0.0 | 0.0 | 0.00 | 0.03 | 0.03 | 98 | 1014.3 |
| 20260509181123 | 23 | 228 | 0.0 | 0.0 | 0.00 | 0.03 | 0.03 | 99 | 1009.9 |
| 20260509181003 | 23 | 261 | 0.0 | 0.0 | 0.00 | 0.03 | 0.03 | 99 | 1014.5 |
| 20260509180620 | 23 | 293 | 0.0 | 0.0 | 0.00 | 0.03 | 0.03 | 99 | 1009.8 |
| 20260509180503 | 23 | 270 | 0.0 | 0.0 | 0.00 | 0.03 | 0.03 | 99 | 1014.5 |
| 20260509180116 | 23 | 240 | 0.0 | 0.0 | 0.00 | 0.03 | 0.03 | 99 | 1010.1 |
| 20260509180004 | 23 | 325 | 0.0 | 0.0 | 0.00 | 0.03 | 0.03 | 99 | 1014.6 |
| 20260509175611 | 23 | 220 | 0.0 | 0.0 | 0.00 | 0.03 | 0.03 | 99 | 1010.1 |
| 20260509175109 | 22 | 226 | 0.0 | 0.0 | 0.00 | 0.03 | 0.03 | 99 | 1010.1 |
| 20260509174605 | 22 | 227 | 0.0 | 0.0 | 0.00 | 0.03 | 0.03 | 99 | 1010.2 |
| 20260509174100 | 22 | 127 | 0.0 | 0.0 | 0.00 | 0.03 | 0.03 | 99 | 1010.4 |
| 20260509174004 | 22 | 253 | 0.0 | 0.0 | 0.00 | 0.03 | 0.03 | 99 | 1015.2 |
| 20260509173555 | 22 | 262 | 0.0 | 0.0 | 0.00 | 0.03 | 0.03 | 99 | 1010.4 |
| 20260509173504 | 22 | 263 | 0.0 | 0.0 | 0.00 | 0.03 | 0.03 | 99 | 1015.0 |
| 20260509173052 | 22 | 241 | 0.0 | 0.0 | 0.00 | 0.03 | 0.03 | 99 | 1010.4 |
| 20260509173004 | 22 | 257 | 0.0 | 0.0 | 0.00 | 0.03 | 0.03 | 99 | 1015.1 |
| 20260509172549 | 22 | 203 | 0.0 | 0.0 | 0.00 | 0.03 | 0.03 | 99 | 1010.2 |
| 20260509172045 | 22 | 184 | 0.0 | 0.0 | 0.00 | 0.03 | 0.03 | 99 | 1010.4 |
| 20260509171541 | 22 | 202 | 0.0 | 0.0 | 0.00 | 0.03 | 0.03 | 99 | 1010.5 |
| 20260509171504 | 22 | 222 | 0.0 | 0.0 | 0.00 | 0.03 | 0.03 | 99 | 1015.2 |
| 20260509171037 | 22 | 222 | 0.0 | 0.0 | 0.00 | 0.03 | 0.03 | 99 | 1010.6 |
| 20260509171004 | 22 | 222 | 0.0 | 0.0 | 0.00 | 0.03 | 0.03 | 99 | 1015.2 |
| 20260509170533 | 22 | 243 | 0.0 | 0.0 | 0.00 | 0.03 | 0.03 | 99 | 1010.6 |
| 20260509170504 | 22 | 243 | 0.0 | 0.0 | 0.00 | 0.03 | 0.03 | 99 | 1015.4 |
| 20260509170029 | 21 | 244 | 0.0 | 0.0 | 0.00 | 0.03 | 0.03 | 99 | 1010.6 |
| 20260509165528 | 21 | 186 | 0.0 | 0.0 | 0.00 | 0.03 | 0.03 | 99 | 1010.7 |
| 20260509165024 | 21 | 202 | 0.0 | 0.0 | 0.00 | 0.03 | 0.03 | 99 | 1010.7 |
| 20260509164520 | 21 | 195 | 0.0 | 0.0 | 0.00 | 0.03 | 0.03 | 99 | 1010.7 |
| 20260509164503 | 21 | 206 | 0.0 | 0.0 | 0.00 | 0.03 | 0.03 | 99 | 1015.3 |
| 20260509164015 | 21 | 229 | 0.0 | 0.0 | 0.00 | 0.03 | 0.03 | 99 | 1010.8 |
| 20260509163514 | 21 | 273 | 0.0 | 0.0 | 0.00 | 0.03 | 0.03 | 99 | 1010.5 |
| 20260509163008 | 21 | 227 | 0.0 | 0.0 | 0.00 | 0.03 | 0.03 | 99 | 1010.4 |
| 20260509163004 | 21 | 233 | 0.0 | 0.0 | 0.00 | 0.03 | 0.03 | 99 | 1015.2 |
| 20260509162506 | 21 | 211 | 0.0 | 0.0 | 0.00 | 0.03 | 0.03 | 99 | 1010.4 |
| 20260509162001 | 21 | 204 | 0.0 | 0.0 | 0.00 | 0.03 | 0.03 | 99 | 1010.4 |
| 20260509161503 | 21 | 202 | 0.0 | 0.0 | 0.00 | 0.03 | 0.03 | 99 | 1015.0 |
| 20260509161459 | 21 | 204 | 0.0 | 0.0 | 0.00 | 0.03 | 0.03 | 99 | 1010.5 |
| 20260509161004 | 21 | 193 | 0.0 | 0.0 | 0.00 | 0.03 | 0.03 | 99 | 1015.1 |
| 20260509160953 | 21 | 205 | 0.0 | 0.0 | 0.00 | 0.03 | 0.03 | 99 | 1010.4 |
| 20260509160449 | 21 | 206 | 0.0 | 0.0 | 0.00 | 0.03 | 0.03 | 99 | 1010.1 |
| 20260509160003 | 21 | 185 | 0.0 | 0.0 | 0.00 | 0.03 | 0.03 | 99 | 1014.9 |
| 20260509155944 | 21 | 204 | 0.0 | 0.0 | 0.00 | 0.03 | 0.03 | 99 | 1010.1 |
| 20260509155442 | 21 | 293 | 0.0 | 0.0 | 0.00 | 0.03 | 0.03 | 99 | 1010.1 |
| 20260509154938 | 21 | 10 | 0.0 | 0.0 | 0.00 | 0.03 | 0.03 | 99 | 1010.2 |
| 20260509154504 | 21 | 214 | 0.0 | 0.0 | 0.00 | 0.03 | 0.03 | 99 | 1014.8 |
| 20260509154434 | 21 | 214 | 0.0 | 0.0 | 0.00 | 0.03 | 0.03 | 99 | 1010.2 |
| 20260509154003 | 21 | 206 | 0.0 | 0.0 | 0.00 | 0.03 | 0.03 | 99 | 1014.7 |
| 20260509153932 | 21 | 206 | 0.0 | 0.0 | 0.00 | 0.03 | 0.03 | 99 | 1010.0 |
| 20260509153504 | 21 | 210 | 0.0 | 0.0 | 0.00 | 0.03 | 0.03 | 99 | 1014.8 |
| 20260509153428 | 21 | 213 | 0.0 | 0.0 | 0.00 | 0.03 | 0.03 | 99 | 1010.2 |
| 20260509152926 | 21 | 220 | 0.0 | 0.0 | 0.00 | 0.03 | 0.03 | 99 | 1009.9 |
| 20260509152421 | 21 | 233 | 0.0 | 0.0 | 0.00 | 0.03 | 0.03 | 99 | 1010.1 |
| 20260509151919 | 21 | 209 | 0.0 | 0.0 | 0.00 | 0.03 | 0.03 | 99 | 1010.0 |
| 20260509151503 | 21 | 209 | 0.0 | 0.0 | 0.00 | 0.03 | 0.03 | 99 | 1014.6 |
| 20260509151414 | 21 | 211 | 0.0 | 0.0 | 0.00 | 0.03 | 0.03 | 99 | 1010.0 |
| 20260509151004 | 21 | 212 | 0.0 | 0.0 | 0.00 | 0.03 | 0.03 | 99 | 1014.5 |
| 20260509150913 | 21 | 212 | 0.0 | 0.0 | 0.00 | 0.03 | 0.03 | 99 | 1009.9 |
| 20260509150504 | 20 | 206 | 0.0 | 0.0 | 0.00 | 0.03 | 0.03 | 99 | 1014.5 |
| 20260509150410 | 20 | 204 | 0.0 | 0.0 | 0.00 | 0.03 | 0.03 | 99 | 1009.9 |
| 20260509150004 | 21 | 208 | 0.0 | 0.0 | 0.00 | 0.03 | 0.03 | 99 | 1014.3 |
| 20260509145908 | 21 | 208 | 0.0 | 0.0 | 0.00 | 0.03 | 0.03 | 99 | 1009.7 |
| 20260509145408 | 21 | 280 | 0.0 | 0.0 | 0.00 | 0.03 | 0.03 | 99 | 1009.9 |
| 20260509144904 | 21 | 263 | 0.0 | 0.0 | 0.00 | 0.03 | 0.03 | 99 | 1009.8 |
| 20260509144504 | 20 | 196 | 0.0 | 0.0 | 0.00 | 0.03 | 0.03 | 99 | 1014.4 |
| 20260509144401 | 20 | 192 | 0.0 | 0.0 | 0.00 | 0.03 | 0.03 | 99 | 1009.8 |
| 20260509144004 | 21 | 213 | 0.0 | 0.0 | 0.00 | 0.03 | 0.03 | 99 | 1014.8 |
| 20260509143858 | 21 | 215 | 0.0 | 0.0 | 0.00 | 0.03 | 0.03 | 99 | 1010.1 |
| 20260509143504 | 20 | 216 | 0.0 | 0.0 | 0.00 | 0.03 | 0.03 | 99 | 1014.8 |
| 20260509143355 | 20 | 216 | 0.0 | 0.0 | 0.00 | 0.03 | 0.03 | 99 | 1010.2 |
| 20260509142851 | 20 | 216 | 0.0 | 0.0 | 0.00 | 0.03 | 0.03 | 99 | 1010.2 |
| 20260509142348 | 20 | 213 | 0.0 | 0.0 | 0.00 | 0.03 | 0.03 | 99 | 1010.2 |
| 20260509141843 | 20 | 217 | 0.0 | 0.0 | 0.00 | 0.03 | 0.03 | 99 | 1010.1 |
| 20260509141504 | 20 | 184 | 0.0 | 0.0 | 0.00 | 0.03 | 0.03 | 99 | 1015.0 |
| 20260509141341 | 20 | 180 | 0.0 | 0.0 | 0.00 | 0.03 | 0.03 | 99 | 1010.3 |
| 20260509141003 | 20 | 235 | 0.0 | 0.0 | 0.00 | 0.03 | 0.03 | 99 | 1014.9 |
| 20260509140837 | 20 | 235 | 0.0 | 0.0 | 0.00 | 0.03 | 0.03 | 99 | 1010.3 |
| 20260509140504 | 20 | 0 | 0.0 | 0.0 | 0.00 | 0.03 | 0.03 | 99 | 1014.9 |
| 20260509140334 | 20 | 4 | 0.0 | 0.0 | 0.00 | 0.03 | 0.03 | 99 | 1010.3 |
| 20260509140005 | 20 | 196 | 0.0 | 0.0 | 0.00 | 0.03 | 0.03 | 99 | 1015.1 |
| 20260509135832 | 20 | 180 | 0.0 | 0.0 | 0.00 | 0.03 | 0.03 | 99 | 1010.4 |
| 20260509135329 | 20 | 23 | 0.0 | 0.0 | 0.00 | 0.03 | 0.03 | 99 | 1010.4 |
| 20260509134827 | 20 | 249 | 0.0 | 0.0 | 0.00 | 0.03 | 0.03 | 99 | 1010.4 |
| 20260509134504 | 20 | 214 | 0.0 | 0.0 | 0.00 | 0.03 | 0.03 | 99 | 1014.8 |
| 20260509134324 | 20 | 67 | 0.0 | 0.0 | 0.00 | 0.03 | 0.03 | 99 | 1010.2 |
| 20260509134004 | 20 | 336 | 0.0 | 0.0 | 0.00 | 0.03 | 0.03 | 99 | 1014.9 |
| 20260509133820 | 20 | 350 | 0.0 | 0.0 | 0.00 | 0.03 | 0.03 | 99 | 1010.3 |
| 20260509133317 | 20 | 207 | 0.0 | 0.0 | 0.00 | 0.03 | 0.03 | 99 | 1009.9 |
| 20260509133004 | 20 | 213 | 0.0 | 0.0 | 0.00 | 0.03 | 0.03 | 99 | 1014.6 |
| 20260509132816 | 20 | 202 | 0.0 | 0.0 | 0.00 | 0.03 | 0.03 | 99 | 1010.0 |
| 20260509132314 | 20 | 214 | 0.0 | 0.0 | 0.00 | 0.03 | 0.03 | 99 | 1009.9 |
| 20260509131810 | 20 | 198 | 0.0 | 0.0 | 0.00 | 0.03 | 0.03 | 99 | 1010.1 |
| 20260509131504 | 20 | 211 | 0.0 | 0.0 | 0.00 | 0.03 | 0.03 | 99 | 1014.7 |
| 20260509131307 | 20 | 203 | 0.0 | 0.0 | 0.00 | 0.03 | 0.03 | 99 | 1010.1 |
| 20260509131004 | 20 | 211 | 0.0 | 0.0 | 0.00 | 0.03 | 0.03 | 99 | 1014.9 |
| 20260509130804 | 20 | 200 | 0.0 | 0.0 | 0.00 | 0.03 | 0.03 | 99 | 1010.3 |
| 20260509130504 | 20 | 205 | 0.0 | 0.0 | 0.00 | 0.03 | 0.03 | 99 | 1014.9 |
| 20260509130259 | 20 | 205 | 0.0 | 0.0 | 0.00 | 0.03 | 0.03 | 99 | 1010.2 |
| 20260509130004 | 20 | 204 | 0.0 | 0.0 | 0.00 | 0.03 | 0.03 | 99 | 1014.6 |
| 20260509125756 | 20 | 198 | 0.0 | 0.0 | 0.00 | 0.03 | 0.03 | 99 | 1009.9 |
| 20260509125253 | 20 | 213 | 0.0 | 0.0 | 0.00 | 0.03 | 0.03 | 99 | 1009.9 |
| 20260509124749 | 20 | 213 | 0.0 | 0.0 | 0.00 | 0.03 | 0.03 | 99 | 1009.8 |
| 20260509124504 | 20 | 230 | 0.0 | 0.0 | 0.00 | 0.03 | 0.03 | 99 | 1014.4 |
| 20260509124246 | 20 | 254 | 0.0 | 0.0 | 0.00 | 0.03 | 0.03 | 99 | 1009.9 |
| 20260509124003 | 20 | 236 | 0.0 | 0.0 | 0.00 | 0.03 | 0.03 | 99 | 1014.5 |
| 20260509123744 | 20 | 236 | 0.0 | 0.0 | 0.00 | 0.03 | 0.03 | 99 | 1010.0 |
| 20260509123504 | 20 | 265 | 0.0 | 0.0 | 0.00 | 0.03 | 0.03 | 99 | 1014.6 |
| 20260509123241 | 20 | 228 | 0.0 | 0.0 | 0.00 | 0.03 | 0.03 | 99 | 1010.0 |
| 20260509123004 | 20 | 244 | 0.0 | 0.0 | 0.00 | 0.03 | 0.03 | 99 | 1014.5 |
| 20260509122736 | 20 | 211 | 0.0 | 0.0 | 0.00 | 0.03 | 0.03 | 99 | 1009.9 |
| 20260509122234 | 20 | 212 | 0.0 | 0.0 | 0.00 | 0.03 | 0.03 | 99 | 1010.0 |
| 20260509121731 | 20 | 221 | 0.0 | 0.0 | 0.00 | 0.03 | 0.03 | 99 | 1009.8 |
| 20260509121504 | 20 | 221 | 0.0 | 0.0 | 0.03 | 0.03 | 0.03 | 99 | 1014.5 |
| 20260509121228 | 20 | 204 | 0.0 | 0.0 | 0.00 | 0.03 | 0.03 | 99 | 1009.8 |
| 20260509120726 | 20 | 204 | 0.0 | 0.0 | 0.00 | 0.03 | 0.03 | 99 | 1009.6 |
| 20260509120223 | 20 | 204 | 0.0 | 0.0 | 0.00 | 0.03 | 0.03 | 99 | 1009.6 |
| 20260509120004 | 20 | 236 | 0.0 | 0.0 | 0.03 | 0.03 | 0.03 | 99 | 1014.2 |
| 20260509115721 | 20 | 211 | 0.0 | 0.0 | 0.00 | 0.03 | 0.03 | 99 | 1009.7 |
| 20260509115218 | 20 | 202 | 0.0 | 0.0 | 0.00 | 0.03 | 0.03 | 99 | 1009.7 |
| 20260509114717 | 20 | 223 | 0.0 | 0.0 | 0.00 | 0.03 | 0.03 | 99 | 1009.7 |
| 20260509114504 | 20 | 231 | 0.0 | 0.0 | 0.03 | 0.03 | 0.03 | 99 | 1014.3 |
| 20260509114215 | 20 | 348 | 0.0 | 0.0 | 0.00 | 0.03 | 0.03 | 99 | 1009.5 |
| 20260509114004 | 20 | 5 | 0.0 | 0.0 | 0.03 | 0.03 | 0.03 | 99 | 1014.2 |
| 20260509113713 | 20 | 195 | 0.0 | 0.0 | 0.00 | 0.03 | 0.03 | 99 | 1009.6 |
| 20260509113503 | 20 | 198 | 0.0 | 0.0 | 0.03 | 0.03 | 0.03 | 99 | 1014.2 |
| 20260509113210 | 20 | 198 | 0.0 | 0.0 | 0.18 | 0.03 | 0.03 | 99 | 1009.7 |
| 20260509113003 | 20 | 198 | 0.0 | 0.0 | 0.03 | 0.03 | 0.03 | 99 | 1014.3 |
| 20260509112707 | 20 | 198 | 0.0 | 0.0 | 0.18 | 0.03 | 0.03 | 99 | 1009.8 |
| 20260509112204 | 20 | 219 | 0.0 | 0.0 | 0.00 | 0.00 | 0.00 | 99 | 1009.5 |
| 20260509111701 | 20 | 220 | 0.0 | 0.0 | 0.00 | 0.00 | 0.00 | 99 | 1009.6 |
| 20260509111504 | 20 | 213 | 0.0 | 0.0 | 0.00 | 0.00 | 0.00 | 99 | 1014.4 |
| 20260509111157 | 20 | 210 | 0.0 | 0.0 | 0.00 | 0.00 | 0.00 | 99 | 1009.7 |
| 20260509111004 | 20 | 210 | 0.0 | 0.0 | 0.00 | 0.00 | 0.00 | 99 | 1014.2 |
| 20260509110655 | 20 | 200 | 0.0 | 0.0 | 0.00 | 0.00 | 0.00 | 99 | 1009.5 |
| 20260509110503 | 20 | 206 | 0.0 | 0.0 | 0.00 | 0.00 | 0.00 | 99 | 1014.2 |
| 20260509110151 | 20 | 196 | 0.0 | 0.0 | 0.00 | 0.00 | 0.00 | 99 | 1009.5 |
| 20260509110004 | 20 | 204 | 0.0 | 0.0 | 0.00 | 0.00 | 0.00 | 99 | 1014.3 |
| 20260509105649 | 20 | 195 | 0.0 | 0.0 | 0.00 | 0.00 | 0.00 | 99 | 1009.6 |
| 20260509105147 | 20 | 327 | 0.0 | 0.0 | 0.00 | 0.00 | 0.00 | 99 | 1009.5 |
| 20260509104644 | 20 | 337 | 0.0 | 0.0 | 0.00 | 0.00 | 0.00 | 99 | 1009.7 |
| 20260509104504 | 20 | 6 | 0.0 | 0.0 | 0.00 | 0.00 | 0.00 | 99 | 1014.3 |
| 20260509104141 | 20 | 330 | 0.0 | 0.0 | 0.00 | 0.00 | 0.00 | 99 | 1009.5 |
| 20260509104003 | 20 | 286 | 0.0 | 0.0 | 0.00 | 0.00 | 0.00 | 99 | 1014.1 |
| 20260509103638 | 20 | 320 | 0.0 | 0.0 | 0.00 | 0.00 | 0.00 | 99 | 1009.6 |
| 20260509103504 | 20 | 255 | 0.0 | 0.0 | 0.00 | 0.00 | 0.00 | 99 | 1014.1 |
| 20260509103136 | 20 | 307 | 0.0 | 0.0 | 0.00 | 0.00 | 0.00 | 99 | 1009.5 |
| 20260509103004 | 20 | 248 | 0.0 | 0.0 | 0.00 | 0.00 | 0.00 | 99 | 1014.1 |
| 20260509102633 | 20 | 338 | 0.0 | 0.0 | 0.00 | 0.00 | 0.00 | 99 | 1009.4 |
| 20260509102130 | 20 | 11 | 0.0 | 0.0 | 0.00 | 0.00 | 0.00 | 99 | 1009.4 |
| 20260509101627 | 20 | 354 | 0.0 | 0.0 | 0.00 | 0.00 | 0.00 | 99 | 1009.3 |
| 20260509101503 | 20 | 355 | 0.0 | 0.0 | 0.00 | 0.00 | 0.00 | 99 | 1013.9 |
| 20260509101123 | 20 | 355 | 0.0 | 0.0 | 0.00 | 0.00 | 0.00 | 99 | 1009.3 |
| 20260509101004 | 20 | 355 | 0.0 | 0.0 | 0.00 | 0.00 | 0.00 | 99 | 1013.7 |
| 20260509100621 | 20 | 355 | 0.0 | 0.0 | 0.00 | 0.00 | 0.00 | 99 | 1009.0 |
| 20260509100118 | 20 | 355 | 0.0 | 0.0 | 0.00 | 0.00 | 0.00 | 99 | 1009.2 |
| 20260509095614 | 20 | 16 | 0.0 | 0.0 | 0.00 | 0.00 | 0.00 | 99 | 1009.1 |
| 20260509095112 | 20 | 202 | 0.0 | 0.0 | 0.00 | 0.00 | 0.00 | 99 | 1008.8 |
| 20260509094608 | 20 | 201 | 0.0 | 0.0 | 0.00 | 0.00 | 0.00 | 99 | 1008.7 |
| 20260509094503 | 20 | 201 | 0.0 | 0.0 | 0.00 | 0.00 | 0.00 | 99 | 1013.2 |
| 20260509094105 | 20 | 201 | 0.0 | 0.0 | 0.00 | 0.00 | 0.00 | 99 | 1008.5 |
| 20260509094004 | 20 | 200 | 0.0 | 0.0 | 0.00 | 0.00 | 0.00 | 99 | 1013.4 |
| 20260509093604 | 20 | 201 | 0.0 | 0.0 | 0.00 | 0.00 | 0.00 | 99 | 1008.7 |
| 20260509093503 | 20 | 201 | 0.0 | 0.0 | 0.00 | 0.00 | 0.00 | 99 | 1013.2 |
| 20260509093100 | 20 | 201 | 0.0 | 0.0 | 0.00 | 0.00 | 0.00 | 99 | 1008.6 |
| 20260509093003 | 20 | 201 | 0.0 | 0.0 | 0.00 | 0.00 | 0.00 | 99 | 1013.2 |
| 20260509092558 | 20 | 201 | 0.0 | 0.0 | 0.00 | 0.00 | 0.00 | 99 | 1008.6 |
| 20260509092057 | 20 | 201 | 0.0 | 0.0 | 0.00 | 0.00 | 0.00 | 99 | 1008.9 |
| 20260509091554 | 20 | 205 | 0.0 | 0.0 | 0.00 | 0.00 | 0.00 | 99 | 1009.0 |
| 20260509091504 | 20 | 204 | 0.0 | 0.0 | 0.00 | 0.00 | 0.00 | 99 | 1013.5 |
| 20260509091050 | 20 | 229 | 0.0 | 0.0 | 0.00 | 0.00 | 0.00 | 99 | 1009.3 |
| 20260509090548 | 20 | 205 | 0.0 | 0.0 | 0.00 | 0.00 | 0.00 | 99 | 1008.8 |
| 20260509090504 | 20 | 205 | 0.0 | 0.0 | 0.00 | 0.00 | 0.00 | 99 | 1013.5 |
| 20260509090045 | 20 | 222 | 0.0 | 0.0 | 0.00 | 0.00 | 0.00 | 99 | 1008.9 |
| 20260509090003 | 20 | 224 | 0.0 | 0.0 | 0.00 | 0.00 | 0.00 | 99 | 1013.5 |
| 20260509085542 | 20 | 228 | 0.0 | 0.0 | 0.00 | 0.00 | 0.00 | 99 | 1009.1 |
| 20260509085038 | 20 | 241 | 0.0 | 0.0 | 0.00 | 0.00 | 0.00 | 99 | 1009.3 |
| 20260509084536 | 20 | 240 | 0.0 | 0.0 | 0.00 | 0.00 | 0.00 | 99 | 1009.4 |
| 20260509084503 | 20 | 285 | 0.0 | 0.0 | 0.00 | 0.00 | 0.00 | 99 | 1013.9 |
| 20260509084033 | 20 | 27 | 0.0 | 0.0 | 0.00 | 0.00 | 0.00 | 99 | 1009.2 |
| 20260509084004 | 20 | 30 | 0.0 | 0.0 | 0.00 | 0.00 | 0.00 | 99 | 1014.0 |
| 20260509083530 | 20 | 29 | 0.0 | 0.0 | 0.00 | 0.00 | 0.00 | 99 | 1009.3 |
| 20260509083504 | 20 | 29 | 0.0 | 0.0 | 0.00 | 0.00 | 0.00 | 99 | 1013.9 |
| 20260509083026 | 20 | 28 | 0.0 | 0.0 | 0.00 | 0.00 | 0.00 | 99 | 1009.5 |
| 20260509083004 | 20 | 28 | 0.0 | 0.0 | 0.00 | 0.00 | 0.00 | 99 | 1014.0 |
| 20260509082524 | 20 | 28 | 0.0 | 0.0 | 0.00 | 0.00 | 0.00 | 99 | 1009.7 |
| 20260509082021 | 20 | 28 | 0.0 | 0.0 | 0.00 | 0.00 | 0.00 | 99 | 1009.4 |
| 20260509081518 | 20 | 5 | 0.0 | 0.0 | 0.00 | 0.00 | 0.00 | 99 | 1009.8 |
| 20260509081504 | 20 | 328 | 0.0 | 0.0 | 0.00 | 0.00 | 0.00 | 99 | 1014.4 |
| 20260509081015 | 20 | 259 | 0.0 | 0.0 | 0.00 | 0.00 | 0.00 | 99 | 1009.7 |
| 20260509081005 | 20 | 236 | 0.0 | 0.0 | 0.00 | 0.00 | 0.00 | 99 | 1014.4 |
| 20260509080513 | 20 | 238 | 0.0 | 0.0 | 0.00 | 0.00 | 0.00 | 99 | 1009.9 |
| 20260509080011 | 20 | 249 | 0.0 | 0.0 | 0.00 | 0.00 | 0.00 | 99 | 1009.6 |
| 20260509080004 | 20 | 205 | 0.0 | 0.0 | 0.00 | 0.00 | 0.00 | 99 | 1014.4 |
| 20260509075508 | 20 | 200 | 0.0 | 0.0 | 0.00 | 0.00 | 0.00 | 99 | 1009.6 |
| 20260509075006 | 20 | 201 | 0.0 | 0.0 | 0.00 | 0.00 | 0.00 | 99 | 1009.7 |
| 20260509074503 | 21 | 201 | 0.0 | 0.0 | 0.00 | 0.00 | 0.00 | 99 | 1009.6 |
| 20260509074004 | 21 | 200 | 0.0 | 0.0 | 0.00 | 0.00 | 0.00 | 99 | 1014.2 |
| 20260509073959 | 21 | 200 | 0.0 | 0.0 | 0.00 | 0.00 | 0.00 | 99 | 1009.7 |
| 20260509073504 | 21 | 200 | 0.0 | 0.0 | 0.00 | 0.00 | 0.00 | 99 | 1014.2 |
| 20260509073455 | 21 | 200 | 0.0 | 0.0 | 0.00 | 0.00 | 0.00 | 99 | 1009.4 |
| 20260509073004 | 21 | 200 | 0.0 | 0.0 | 0.00 | 0.00 | 0.00 | 99 | 1014.0 |
| 20260509072952 | 21 | 200 | 0.0 | 0.0 | 0.00 | 0.00 | 0.00 | 99 | 1009.4 |
| 20260509072449 | 21 | 200 | 0.0 | 0.0 | 0.00 | 0.00 | 0.00 | 99 | 1009.5 |
| 20260509071946 | 21 | 200 | 0.0 | 0.0 | 0.00 | 0.00 | 0.00 | 99 | 1009.9 |
| 20260509071504 | 20 | 200 | 0.0 | 0.0 | 0.00 | 0.00 | 0.00 | 99 | 1014.5 |
| 20260509071442 | 21 | 200 | 0.0 | 0.0 | 0.00 | 0.00 | 0.00 | 99 | 1009.8 |
| 20260509071003 | 21 | 200 | 0.0 | 0.0 | 0.00 | 0.00 | 0.00 | 99 | 1014.3 |
| 20260509070940 | 21 | 200 | 0.0 | 0.0 | 0.00 | 0.00 | 0.00 | 99 | 1009.8 |
| 20260509070503 | 21 | 200 | 0.0 | 0.0 | 0.00 | 0.00 | 0.00 | 99 | 1014.6 |
| 20260509070437 | 21 | 200 | 0.0 | 0.0 | 0.00 | 0.00 | 0.00 | 99 | 1009.9 |
| 20260509065932 | 21 | 200 | 0.0 | 0.0 | 0.00 | 0.00 | 0.00 | 99 | 1010.0 |
| 20260509065428 | 21 | 200 | 0.0 | 0.0 | 0.00 | 0.00 | 0.00 | 99 | 1010.0 |
| 20260509064925 | 21 | 200 | 0.0 | 0.0 | 0.00 | 0.00 | 0.00 | 99 | 1009.9 |
| 20260509064504 | 21 | 200 | 0.0 | 0.0 | 0.00 | 0.00 | 0.00 | 99 | 1014.5 |
| 20260509064422 | 21 | 200 | 0.0 | 0.0 | 0.00 | 0.00 | 0.00 | 99 | 1009.9 |
| 20260509063920 | 21 | 200 | 0.0 | 0.0 | 0.00 | 0.00 | 0.00 | 99 | 1010.1 |
| 20260509063416 | 21 | 197 | 0.0 | 0.0 | 0.00 | 0.00 | 0.00 | 99 | 1010.0 |
| 20260509063004 | 21 | 197 | 0.0 | 0.0 | 0.00 | 0.00 | 0.00 | 99 | 1014.9 |
| 20260509062913 | 21 | 197 | 0.0 | 0.0 | 0.00 | 0.00 | 0.00 | 99 | 1010.2 |
| 20260509062410 | 21 | 197 | 0.0 | 0.0 | 0.00 | 0.00 | 0.00 | 99 | 1010.3 |
| 20260509061907 | 21 | 197 | 0.0 | 0.0 | 0.00 | 0.00 | 0.00 | 99 | 1010.2 |
| 20260509061504 | 21 | 197 | 0.0 | 0.0 | 0.00 | 0.00 | 0.00 | 99 | 1014.8 |
| 20260509061406 | 21 | 197 | 0.0 | 0.0 | 0.00 | 0.00 | 0.00 | 99 | 1010.1 |
| 20260509061004 | 21 | 197 | 0.0 | 0.0 | 0.00 | 0.00 | 0.00 | 99 | 1015.1 |
| 20260509060902 | 21 | 197 | 0.0 | 0.0 | 0.00 | 0.00 | 0.00 | 99 | 1010.5 |
| 20260509060504 | 21 | 197 | 0.0 | 0.0 | 0.00 | 0.00 | 0.00 | 99 | 1015.2 |
| 20260509060359 | 21 | 197 | 0.0 | 0.0 | 0.00 | 0.00 | 0.00 | 99 | 1010.5 |
| 20260509060004 | 21 | 197 | 0.0 | 0.0 | 0.00 | 0.00 | 0.00 | 99 | 1015.0 |
| 20260509055854 | 21 | 197 | 0.0 | 0.0 | 0.00 | 0.00 | 0.00 | 99 | 1010.4 |
| 20260509055350 | 21 | 206 | 0.0 | 0.0 | 0.00 | 0.00 | 0.00 | 99 | 1010.5 |
| 20260509054847 | 21 | 207 | 0.0 | 0.0 | 0.00 | 0.00 | 0.00 | 98 | 1010.4 |
| 20260509054504 | 21 | 207 | 0.0 | 0.0 | 0.00 | 0.00 | 0.00 | 98 | 1015.2 |
| 20260509054344 | 21 | 207 | 0.0 | 0.0 | 0.00 | 0.00 | 0.00 | 98 | 1010.6 |
| 20260509054003 | 21 | 207 | 0.0 | 0.0 | 0.00 | 0.00 | 0.00 | 98 | 1015.3 |
| 20260509053842 | 21 | 207 | 0.0 | 0.0 | 0.00 | 0.00 | 0.00 | 98 | 1010.7 |
| 20260509053503 | 21 | 207 | 0.0 | 0.0 | 0.00 | 0.00 | 0.00 | 99 | 1015.3 |
| 20260509053339 | 21 | 207 | 0.0 | 0.0 | 0.00 | 0.00 | 0.00 | 99 | 1010.7 |
| 20260509053003 | 21 | 207 | 0.0 | 0.0 | 0.00 | 0.00 | 0.00 | 99 | 1015.2 |
| 20260509052837 | 21 | 207 | 0.0 | 0.0 | 0.00 | 0.00 | 0.00 | 99 | 1010.5 |
| 20260509052334 | 21 | 216 | 0.0 | 0.0 | 0.00 | 0.00 | 0.00 | 99 | 1010.4 |
| 20260509051832 | 21 | 209 | 0.0 | 0.0 | 0.00 | 0.00 | 0.00 | 99 | 1010.5 |
| 20260509051503 | 21 | 247 | 0.0 | 0.0 | 0.00 | 0.00 | 0.00 | 99 | 1015.2 |
| 20260509051330 | 21 | 247 | 0.0 | 0.0 | 0.00 | 0.00 | 0.00 | 99 | 1010.6 |
| 20260509051004 | 21 | 248 | 0.0 | 0.0 | 0.00 | 0.00 | 0.00 | 99 | 1015.0 |
| 20260509050826 | 21 | 248 | 0.0 | 0.0 | 0.00 | 0.00 | 0.00 | 99 | 1010.2 |
| 20260509050503 | 21 | 248 | 0.0 | 0.0 | 0.00 | 0.00 | 0.00 | 99 | 1014.7 |
| 20260509050323 | 21 | 248 | 0.0 | 0.0 | 0.00 | 0.00 | 0.00 | 99 | 1010.2 |
| 20260509050004 | 21 | 251 | 0.0 | 0.0 | 0.00 | 0.03 | 0.00 | 99 | 1014.8 |
| 20260509045820 | 21 | 246 | 0.0 | 0.0 | 0.00 | 0.00 | 0.00 | 99 | 1010.2 |
| 20260509045317 | 21 | 240 | 0.0 | 0.0 | 0.00 | 0.00 | 0.00 | 99 | 1010.2 |
| 20260509044814 | 21 | 241 | 0.0 | 0.0 | 0.00 | 0.00 | 0.00 | 99 | 1010.0 |
| 20260509044312 | 21 | 282 | 0.0 | 0.0 | 0.00 | 0.00 | 0.00 | 99 | 1010.0 |
| 20260509044003 | 21 | 246 | 0.0 | 0.0 | 0.00 | 0.03 | 0.00 | 99 | 1014.6 |
| 20260509043808 | 21 | 246 | 0.0 | 0.0 | 0.00 | 0.00 | 0.00 | 99 | 1010.0 |
| 20260509043304 | 21 | 246 | 0.0 | 0.0 | 0.00 | 0.00 | 0.00 | 99 | 1009.9 |
| 20260509043004 | 21 | 246 | 0.0 | 0.0 | 0.00 | 0.03 | 0.00 | 99 | 1014.6 |
| 20260509042800 | 21 | 246 | 0.0 | 0.0 | 0.00 | 0.00 | 0.00 | 98 | 1009.9 |
| 20260509042257 | 21 | 246 | 0.0 | 0.0 | 0.00 | 0.00 | 0.00 | 98 | 1009.9 |
| 20260509041753 | 21 | 245 | 0.0 | 0.0 | 0.00 | 0.00 | 0.00 | 98 | 1009.8 |
| 20260509041503 | 21 | 246 | 0.0 | 0.0 | 0.00 | 0.03 | 0.00 | 98 | 1014.5 |
| 20260509041250 | 21 | 245 | 0.0 | 0.0 | 0.00 | 0.00 | 0.00 | 98 | 1010.0 |
| 20260509041004 | 21 | 255 | 0.0 | 1.6 | 0.00 | 0.03 | 0.00 | 98 | 1014.6 |
| 20260509040749 | 21 | 271 | 0.0 | 0.0 | 0.00 | 0.00 | 0.00 | 98 | 1009.9 |
| 20260509040246 | 21 | 42 | 0.0 | 0.0 | 0.00 | 0.00 | 0.00 | 98 | 1010.0 |
| 20260509040004 | 21 | 89 | 0.0 | 0.0 | 0.00 | 0.03 | 0.00 | 98 | 1014.3 |
| 20260509035742 | 21 | 187 | 0.0 | 0.0 | 0.00 | 0.00 | 0.00 | 98 | 1009.9 |
| 20260509035239 | 21 | 199 | 0.0 | 0.0 | 0.00 | 0.00 | 0.00 | 98 | 1009.7 |
| 20260509034736 | 21 | 199 | 0.0 | 0.0 | 0.00 | 0.00 | 0.00 | 98 | 1009.9 |
| 20260509034503 | 21 | 198 | 0.0 | 0.0 | 0.00 | 0.03 | 0.00 | 98 | 1014.4 |
| 20260509034234 | 21 | 193 | 0.0 | 0.0 | 0.00 | 0.00 | 0.00 | 98 | 1009.7 |
| 20260509034004 | 21 | 198 | 0.0 | 0.0 | 0.00 | 0.03 | 0.00 | 98 | 1014.2 |
| 20260509033731 | 21 | 202 | 0.0 | 0.0 | 0.00 | 0.00 | 0.00 | 98 | 1009.6 |
| 20260509033503 | 21 | 199 | 0.0 | 1.6 | 0.00 | 0.03 | 0.00 | 98 | 1014.0 |
| 20260509033228 | 21 | 212 | 0.0 | 0.0 | 0.00 | 0.00 | 0.00 | 98 | 1009.5 |
| 20260509033004 | 21 | 180 | 0.0 | 1.6 | 0.00 | 0.03 | 0.00 | 98 | 1014.0 |
| 20260509032725 | 21 | 218 | 0.0 | 0.0 | 0.00 | 0.00 | 0.00 | 98 | 1009.5 |
| 20260509032222 | 21 | 202 | 0.0 | 0.0 | 0.00 | 0.00 | 0.00 | 98 | 1009.8 |
| 20260509031719 | 21 | 209 | 0.0 | 0.0 | 0.00 | 0.00 | 0.00 | 98 | 1009.7 |
| 20260509031503 | 21 | 200 | 0.0 | 0.0 | 0.00 | 0.03 | 0.00 | 98 | 1014.3 |
| 20260509031217 | 21 | 209 | 0.0 | 0.0 | 0.00 | 0.00 | 0.00 | 98 | 1009.6 |
| 20260509031004 | 21 | 247 | 0.0 | 0.0 | 0.00 | 0.03 | 0.00 | 98 | 1014.4 |
| 20260509030715 | 21 | 206 | 0.0 | 0.0 | 0.00 | 0.00 | 0.00 | 98 | 1009.7 |
| 20260509030504 | 21 | 207 | 0.0 | 0.0 | 0.00 | 0.03 | 0.00 | 98 | 1014.3 |
| 20260509030212 | 21 | 218 | 0.0 | 0.0 | 0.00 | 0.00 | 0.00 | 98 | 1009.8 |
| 20260509030004 | 21 | 198 | 0.0 | 0.0 | 0.00 | 0.03 | 0.00 | 98 | 1014.2 |
| 20260509025708 | 21 | 201 | 0.0 | 0.0 | 0.00 | 0.00 | 0.00 | 98 | 1009.5 |
| 20260509025204 | 21 | 207 | 0.0 | 0.0 | 0.00 | 0.00 | 0.00 | 98 | 1009.4 |
| 20260509024659 | 20 | 208 | 0.0 | 0.0 | 0.00 | 0.00 | 0.00 | 98 | 1009.4 |
| 20260509024503 | 20 | 208 | 0.0 | 0.0 | 0.00 | 0.03 | 0.00 | 98 | 1013.8 |
| 20260509024155 | 20 | 211 | 0.0 | 0.0 | 0.00 | 0.00 | 0.00 | 98 | 1009.3 |
| 20260509024004 | 20 | 198 | 0.0 | 0.0 | 0.00 | 0.03 | 0.00 | 98 | 1013.6 |
| 20260509023653 | 20 | 215 | 0.0 | 0.0 | 0.00 | 0.00 | 0.00 | 98 | 1009.2 |
| 20260509023150 | 20 | 219 | 0.0 | 0.0 | 0.00 | 0.00 | 0.00 | 98 | 1008.9 |
| 20260509023004 | 20 | 199 | 0.0 | 1.6 | 0.00 | 0.03 | 0.00 | 98 | 1013.5 |
| 20260509022646 | 20 | 215 | 0.0 | 0.0 | 0.00 | 0.00 | 0.00 | 98 | 1008.8 |
| 20260509022144 | 20 | 162 | 1.6 | 1.6 | 0.00 | 0.00 | 0.00 | 98 | 1008.7 |
| 20260509021641 | 20 | 186 | 0.0 | 1.6 | 0.00 | 0.00 | 0.00 | 98 | 1008.6 |
| 20260509021503 | 20 | 194 | 0.0 | 0.0 | 0.00 | 0.03 | 0.00 | 98 | 1013.3 |
| 20260509021138 | 20 | 192 | 0.0 | 0.0 | 0.00 | 0.00 | 0.00 | 98 | 1008.4 |
| 20260509021004 | 20 | 183 | 0.0 | 0.0 | 0.00 | 0.03 | 0.00 | 98 | 1013.2 |
| 20260509020636 | 20 | 182 | 0.0 | 0.0 | 0.00 | 0.00 | 0.00 | 98 | 1008.1 |
| 20260509020133 | 21 | 195 | 0.0 | 0.0 | 0.00 | 0.00 | 0.00 | 97 | 1008.0 |
| 20260509020004 | 21 | 186 | 0.0 | 0.0 | 0.00 | 0.03 | 0.00 | 97 | 1012.9 |
| 20260509015632 | 21 | 186 | 0.0 | 0.0 | 0.00 | 0.00 | 0.00 | 97 | 1008.4 |
| 20260509015129 | 21 | 197 | 0.0 | 0.0 | 0.00 | 0.00 | 0.00 | 97 | 1008.3 |
| 20260509014625 | 21 | 206 | 0.0 | 0.0 | 0.00 | 0.00 | 0.00 | 97 | 1008.2 |
| 20260509014504 | 21 | 201 | 0.0 | 0.0 | 0.00 | 0.03 | 0.00 | 97 | 1012.8 |
| 20260509014122 | 21 | 182 | 0.0 | 0.0 | 0.00 | 0.00 | 0.00 | 97 | 1008.0 |
| 20260509014004 | 21 | 178 | 1.6 | 1.6 | 0.00 | 0.03 | 0.00 | 97 | 1012.9 |
| 20260509013619 | 21 | 177 | 0.0 | 0.0 | 0.00 | 0.00 | 0.00 | 96 | 1008.1 |
| 20260509013503 | 21 | 189 | 1.6 | 1.6 | 0.00 | 0.03 | 0.00 | 96 | 1012.7 |
| 20260509013114 | 21 | 182 | 1.6 | 1.6 | 0.00 | 0.00 | 0.00 | 96 | 1008.2 |
| 20260509012611 | 21 | 187 | 1.6 | 3.2 | 0.00 | 0.00 | 0.00 | 96 | 1008.2 |
| 20260509012108 | 21 | 205 | 0.0 | 0.0 | 0.00 | 0.00 | 0.00 | 95 | 1008.4 |
| 20260509011606 | 21 | 195 | 0.0 | 0.0 | 0.00 | 0.00 | 0.00 | 95 | 1008.2 |
| 20260509011503 | 21 | 203 | 0.0 | 0.0 | 0.00 | 0.03 | 0.00 | 95 | 1012.9 |
| 20260509011103 | 21 | 205 | 0.0 | 0.0 | 0.00 | 0.00 | 0.00 | 95 | 1008.3 |
| 20260509011003 | 21 | 202 | 0.0 | 3.2 | 0.00 | 0.03 | 0.00 | 94 | 1013.0 |
| 20260509010601 | 21 | 185 | 3.2 | 3.2 | 0.00 | 0.00 | 0.00 | 94 | 1008.4 |
| 20260509010503 | 21 | 196 | 0.0 | 0.0 | 0.00 | 0.03 | 0.00 | 94 | 1013.0 |
| 20260509010057 | 21 | 195 | 0.0 | 0.0 | 0.00 | 0.00 | 0.00 | 94 | 1008.3 |
| 20260509010004 | 21 | 195 | 0.0 | 1.6 | 0.00 | 0.03 | 0.00 | 94 | 1013.0 |
| 20260509005555 | 21 | 202 | 0.0 | 0.0 | 0.00 | 0.00 | 0.00 | 93 | 1008.4 |
| 20260509005050 | 21 | 212 | 0.0 | 0.0 | 0.00 | 0.00 | 0.00 | 93 | 1008.4 |
| 20260509004547 | 22 | 211 | 0.0 | 0.0 | 0.00 | 0.00 | 0.00 | 92 | 1008.3 |
| 20260509004504 | 22 | 199 | 0.0 | 1.6 | 0.00 | 0.03 | 0.00 | 92 | 1012.9 |
| 20260509004044 | 22 | 193 | 0.0 | 1.6 | 0.00 | 0.00 | 0.00 | 92 | 1008.5 |
| 20260509004004 | 22 | 198 | 1.6 | 1.6 | 0.00 | 0.03 | 0.00 | 92 | 1013.1 |
| 20260509003542 | 22 | 199 | 0.0 | 1.6 | 0.00 | 0.00 | 0.00 | 92 | 1008.6 |
| 20260509003503 | 22 | 201 | 0.0 | 1.6 | 0.00 | 0.03 | 0.00 | 91 | 1013.2 |
| 20260509003039 | 22 | 200 | 0.0 | 1.6 | 0.00 | 0.00 | 0.00 | 91 | 1008.5 |
| 20260509003004 | 22 | 181 | 1.6 | 4.8 | 0.00 | 0.03 | 0.00 | 91 | 1013.0 |
| 20260509002537 | 22 | 125 | 3.2 | 4.8 | 0.00 | 0.00 | 0.00 | 91 | 1008.2 |
| 20260509002034 | 22 | 164 | 3.2 | 3.2 | 0.00 | 0.00 | 0.00 | 90 | 1008.6 |
| 20260509001531 | 22 | 157 | 1.6 | 1.6 | 0.00 | 0.00 | 0.00 | 90 | 1008.8 |
| 20260509001027 | 22 | 207 | 0.0 | 0.0 | 0.00 | 0.00 | 0.00 | 89 | 1008.5 |
| 20260509001004 | 22 | 202 | 1.6 | 1.6 | 0.00 | 0.03 | 0.00 | 89 | 1013.2 |
| 20260509000526 | 22 | 194 | 0.0 | 0.0 | 0.00 | 0.00 | 0.00 | 89 | 1008.8 |
| 20260509000504 | 22 | 210 | 0.0 | 1.6 | 0.00 | 0.03 | 0.00 | 89 | 1013.4 |
| 20260509000021 | 22 | 221 | 0.0 | 0.0 | 0.00 | 0.00 | 0.00 | 89 | 1009.0 |
| 20260509000004 | 22 | 223 | 0.0 | 1.6 | 0.00 | 0.03 | 0.00 | 89 | 1013.8 |
| 20260508235519 | 22 | 207 | 0.0 | 0.0 | 0.00 | 0.00 | 0.00 | 89 | 1009.2 |
| 20260508235015 | 22 | 219 | 0.0 | 0.0 | 0.00 | 0.00 | 0.00 | 88 | 1009.4 |